TFL39G EHAM-LTAI

Flight info

Callsign TFL39G
Flight time 3h 37m
Altitude 35000
Route EDUPO Z739 MISGO DCT DIXAT DCT TIVUN DCT ESAMA DCT OSBIT DCT TENLO DCT LAMSI/N0437F370 DCT BARUG DCT SASAL DCT SOGMO DCT BABIT DCT NISVA DCT USALI DCT RODIP DCT BELGI UN131 KOZLU
Aircraft B738/M-SDE2E3FGHIRWXY/LB1

Departure

Time 2026-05-06 10:46
Airport Amsterdam Airport Schiphol (EHAM)

Arrival

Time 2026-05-06 14:23
Airport Antalya International Airport (LTAI)
Time Latitude Longitude Altitude Speed Heading
2026-05-06 10:17 52.30928 4.76889 -2 ft 0 kts 137°
2026-05-06 10:31 52.30929 4.76888 -2 ft 2 kts 137°
2026-05-06 10:31 52.30948 4.76861 -2 ft 4 kts 143°
2026-05-06 10:32 52.30970 4.76835 -2 ft 4 kts 144°
2026-05-06 10:32 52.30988 4.76813 -2 ft 3 kts 137°
2026-05-06 10:32 52.31000 4.76781 -2 ft 4 kts 92°
2026-05-06 10:32 52.30999 4.76749 -2 ft 4 kts 83°
2026-05-06 10:33 52.31007 4.76777 -2 ft 4 kts 57°
2026-05-06 10:33 52.31026 4.76807 -2 ft 4 kts 38°
2026-05-06 10:33 52.31047 4.76831 -2 ft 2 kts 33°
2026-05-06 10:33 52.31049 4.76833 -2 ft 1 kts 33°
2026-05-06 10:36 52.31080 4.76886 -2 ft 10 kts 63°
2026-05-06 10:36 52.31084 4.76997 -2 ft 10 kts 94°
2026-05-06 10:37 52.31079 4.77106 -2 ft 9 kts 94°
2026-05-06 10:37 52.31076 4.77217 -2 ft 10 kts 92°
2026-05-06 10:37 52.31072 4.77339 -2 ft 11 kts 92°
2026-05-06 10:37 52.31051 4.77464 -2 ft 12 kts 135°
2026-05-06 10:38 52.30970 4.77481 -2 ft 13 kts 183°
2026-05-06 10:38 52.30875 4.77472 -2 ft 14 kts 183°
2026-05-06 10:38 52.30772 4.77463 -2 ft 15 kts 183°
2026-05-06 10:38 52.30672 4.77449 -2 ft 14 kts 195°
2026-05-06 10:39 52.30607 4.77335 -2 ft 14 kts 238°
2026-05-06 10:39 52.30558 4.77207 -2 ft 13 kts 238°
2026-05-06 10:39 52.30509 4.77080 -2 ft 14 kts 238°
2026-05-06 10:39 52.30453 4.76935 -2 ft 18 kts 238°
2026-05-06 10:40 52.30380 4.76743 -2 ft 20 kts 238°
2026-05-06 10:40 52.30305 4.76549 -2 ft 20 kts 238°
2026-05-06 10:40 52.30234 4.76361 -2 ft 19 kts 238°
2026-05-06 10:40 52.30163 4.76179 -2 ft 19 kts 238°
2026-05-06 10:41 52.30096 4.76003 -2 ft 18 kts 238°
2026-05-06 10:41 52.30030 4.75833 -2 ft 17 kts 238°
2026-05-06 10:41 52.29969 4.75668 -2 ft 17 kts 238°
2026-05-06 10:41 52.29907 4.75511 -2 ft 16 kts 237°
2026-05-06 10:42 52.29849 4.75359 -2 ft 15 kts 241°
2026-05-06 10:42 52.29844 4.75196 -2 ft 15 kts 300°
2026-05-06 10:42 52.29909 4.75072 -2 ft 14 kts 312°
2026-05-06 10:42 52.29994 4.74915 -2 ft 20 kts 311°
2026-05-06 10:43 52.30082 4.74750 1 ft 19 kts 311°
2026-05-06 10:43 52.30169 4.74589 9 ft 19 kts 311°
2026-05-06 10:43 52.30253 4.74434 9 ft 18 kts 310°
2026-05-06 10:44 52.30402 4.74150 -2 ft 13 kts 310°
2026-05-06 10:44 52.30413 4.74020 -2 ft 12 kts 250°
2026-05-06 10:44 52.30408 4.73925 -2 ft 7 kts 272°
2026-05-06 10:44 52.30411 4.73828 -4 ft 12 kts 274°
2026-05-06 10:45 52.30467 4.73763 -4 ft 8 kts
2026-05-06 10:45 52.30586 4.73774 -4 ft 44 kts
2026-05-06 10:45 52.31127 4.73822 -2 ft 110 kts
2026-05-06 10:45 52.32080 4.73925 41 ft 160 kts
2026-05-06 10:46 52.33241 4.73971 628 ft 171 kts
2026-05-06 10:46 52.34349 4.74397 1583 ft 163 kts 26°
2026-05-06 10:46 52.35433 4.75213 2109 ft 185 kts 25°
2026-05-06 10:46 52.36695 4.76119 2331 ft 209 kts 25°
2026-05-06 10:47 52.38006 4.77209 2801 ft 219 kts 38°
2026-05-06 10:47 52.39112 4.79042 3273 ft 234 kts 46°
2026-05-06 10:47 52.40263 4.81012 3887 ft 246 kts 45°
2026-05-06 10:47 52.41453 4.83057 4745 ft 248 kts 49°
2026-05-06 10:48 52.42242 4.85586 5579 ft 255 kts 73°
2026-05-06 10:48 52.42449 4.88508 6431 ft 259 kts 87°
2026-05-06 10:48 52.42445 4.91496 7150 ft 265 kts 88°
2026-05-06 10:48 52.42436 4.94518 7901 ft 269 kts 86°
2026-05-06 10:49 52.42241 4.97605 8560 ft 280 kts 108°
2026-05-06 10:49 52.41183 5.00311 9217 ft 290 kts 136°
2026-05-06 10:49 52.39568 5.02322 9953 ft 294 kts 145°
2026-05-06 10:49 52.37883 5.04207 10473 ft 306 kts 145°
2026-05-06 10:50 52.36059 5.06265 10660 ft 329 kts 145°
2026-05-06 10:50 52.34140 5.08458 11151 ft 341 kts 144°
2026-05-06 10:50 52.32312 5.10981 11813 ft 346 kts 134°
2026-05-06 10:50 52.30699 5.13942 12513 ft 350 kts 130°
2026-05-06 10:51 52.29118 5.17003 12773 ft 354 kts 130°
2026-05-06 10:51 52.27507 5.20046 12771 ft 355 kts 131°
2026-05-06 10:51 52.25868 5.23058 12770 ft 356 kts 132°
2026-05-06 10:51 52.24213 5.26080 12784 ft 357 kts 130°
2026-05-06 10:52 52.22686 5.29286 12773 ft 358 kts 126°
2026-05-06 10:52 52.21269 5.32596 12805 ft 354 kts 124°
2026-05-06 10:52 52.19875 5.35928 13213 ft 359 kts 124°
2026-05-06 10:52 52.18441 5.39327 13750 ft 367 kts 124°
2026-05-06 10:53 52.16994 5.42718 14601 ft 363 kts 124°
2026-05-06 10:53 52.15553 5.46058 15464 ft 359 kts 125°
2026-05-06 10:53 52.14127 5.49337 16172 ft 360 kts 126°
2026-05-06 10:53 52.12671 5.52676 16816 ft 363 kts 126°
2026-05-06 10:54 52.11205 5.56026 17479 ft 366 kts 126°
2026-05-06 10:54 52.09723 5.59413 18164 ft 367 kts 127°
2026-05-06 10:54 52.08231 5.62815 18709 ft 370 kts 127°
2026-05-06 10:54 52.06729 5.66232 19263 ft 372 kts 127°
2026-05-06 10:55 52.05162 5.69605 19769 ft 376 kts 131°
2026-05-06 10:55 52.03433 5.72848 20216 ft 380 kts 134°
2026-05-06 10:55 52.01666 5.76055 20788 ft 382 kts 133°
2026-05-06 10:55 51.99898 5.79302 21252 ft 387 kts 132°
2026-05-06 10:56 51.98146 5.82564 21774 ft 389 kts 133°
2026-05-06 10:56 51.96366 5.85890 22292 ft 392 kts 133°
2026-05-06 10:56 51.94564 5.89249 22757 ft 395 kts 133°
2026-05-06 10:56 51.92758 5.92612 23249 ft 398 kts 133°
2026-05-06 10:57 51.90929 5.96012 23700 ft 400 kts 132°
2026-05-06 10:57 51.89095 5.99418 24119 ft 402 kts 133°
2026-05-06 10:57 51.87253 6.02833 24545 ft 404 kts 131°
2026-05-06 10:57 51.85401 6.06262 24917 ft 407 kts 131°
2026-05-06 10:58 51.83529 6.09704 25365 ft 407 kts 132°
2026-05-06 10:58 51.81655 6.13131 25851 ft 407 kts 132°
2026-05-06 10:58 51.79768 6.16579 26198 ft 410 kts 132°
2026-05-06 10:58 51.77884 6.20018 26708 ft 409 kts 132°
2026-05-06 10:59 51.75998 6.23459 27049 ft 412 kts 132°
2026-05-06 10:59 51.74088 6.26945 27299 ft 416 kts 132°
2026-05-06 10:59 51.72177 6.30435 27784 ft 416 kts 132°
2026-05-06 10:59 51.70272 6.33908 28076 ft 419 kts 131°
2026-05-06 11:00 51.68333 6.37443 28368 ft 422 kts 131°
2026-05-06 11:00 51.66387 6.40983 28767 ft 423 kts 131°
2026-05-06 11:00 51.64429 6.44539 29160 ft 424 kts 131°
2026-05-06 11:00 51.62470 6.48087 29602 ft 424 kts 131°
2026-05-06 11:01 51.60505 6.51643 29896 ft 427 kts 131°
2026-05-06 11:01 51.58523 6.55226 30196 ft 430 kts 131°
2026-05-06 11:01 51.56536 6.58812 30550 ft 430 kts 131°
2026-05-06 11:01 51.54541 6.62410 30784 ft 433 kts 131°
2026-05-06 11:02 51.52536 6.66020 31208 ft 430 kts 132°
2026-05-06 11:02 51.50548 6.69596 31581 ft 429 kts 132°
2026-05-06 11:02 51.48556 6.73176 31805 ft 432 kts 133°
2026-05-06 11:02 51.46550 6.76773 32051 ft 433 kts 133°
2026-05-06 11:03 51.44565 6.80332 32340 ft 433 kts 133°
2026-05-06 11:03 51.42553 6.83931 32568 ft 434 kts 133°
2026-05-06 11:03 51.40540 6.87532 32869 ft 433 kts 132°
2026-05-06 11:03 51.38623 6.91195 33129 ft 434 kts 130°
2026-05-06 11:04 51.36745 6.94991 33402 ft 434 kts 129°
2026-05-06 11:04 51.34887 6.98802 33604 ft 436 kts 129°
2026-05-06 11:04 51.33008 7.02638 33831 ft 437 kts 130°
2026-05-06 11:04 51.31127 7.06444 34082 ft 437 kts 130°
2026-05-06 11:05 51.29236 7.10235 34278 ft 436 kts 130°
2026-05-06 11:05 51.27342 7.14019 34485 ft 437 kts 130°
2026-05-06 11:05 51.25525 7.17928 34658 ft 438 kts 127°
2026-05-06 11:05 51.23836 7.21996 34788 ft 441 kts 125°
2026-05-06 11:06 51.22186 7.26121 34799 ft 441 kts 125°
2026-05-06 11:06 51.18893 7.34376 34810 ft 440 kts 125°
2026-05-06 11:07 51.15572 7.42558 34803 ft 439 kts 126°
2026-05-06 11:07 51.12797 7.49315 34804 ft 439 kts 126°
2026-05-06 11:08 51.08900 7.58754 34807 ft 439 kts 126°
2026-05-06 11:08 51.05548 7.66846 34793 ft 438 kts 127°
2026-05-06 11:09 51.02760 7.73563 34792 ft 437 kts 127°
2026-05-06 11:09 50.99403 7.81627 34787 ft 437 kts 127°
2026-05-06 11:10 50.96050 7.89662 34786 ft 437 kts 127°
2026-05-06 11:10 50.92648 7.97651 34783 ft 435 kts 131°
2026-05-06 11:11 50.88463 8.04472 34767 ft 431 kts 140°
2026-05-06 11:11 50.84094 8.10992 34773 ft 432 kts 140°
2026-05-06 11:12 50.79736 8.17546 34773 ft 432 kts 140°
2026-05-06 11:12 50.75423 8.24079 34776 ft 432 kts 140°
2026-05-06 11:13 50.71089 8.30648 34766 ft 431 kts 140°
2026-05-06 11:13 50.66754 8.37202 34773 ft 431 kts 140°
2026-05-06 11:14 50.62422 8.43732 34749 ft 431 kts 140°
2026-05-06 11:14 50.58084 8.50252 34757 ft 431 kts 140°
2026-05-06 11:15 50.53771 8.56719 34755 ft 431 kts 140°
2026-05-06 11:15 50.49421 8.63223 34759 ft 432 kts 140°
2026-05-06 11:16 50.45059 8.69728 34769 ft 432 kts 140°
2026-05-06 11:16 50.40690 8.76230 34762 ft 432 kts 140°
2026-05-06 11:17 50.36334 8.82700 34755 ft 431 kts 139°
2026-05-06 11:17 50.32751 8.90298 34752 ft 439 kts 120°
2026-05-06 11:18 50.30234 8.99024 34761 ft 440 kts 117°
2026-05-06 11:18 50.27768 9.07761 34759 ft 439 kts 118°
2026-05-06 11:19 50.25280 9.16403 34776 ft 439 kts 118°
2026-05-06 11:19 50.22733 9.25128 34740 ft 443 kts 119°
2026-05-06 11:20 50.20167 9.33874 34767 ft 443 kts 119°
2026-05-06 11:20 50.17592 9.42620 34769 ft 444 kts 119°
2026-05-06 11:21 50.15008 9.51372 34769 ft 444 kts 119°
2026-05-06 11:21 50.12413 9.60130 34777 ft 445 kts 119°
2026-05-06 11:22 50.09810 9.68885 34766 ft 446 kts 120°
2026-05-06 11:22 50.07202 9.77600 34766 ft 445 kts 122°
2026-05-06 11:23 50.04032 9.85753 34781 ft 439 kts 129°
2026-05-06 11:23 50.00619 9.93592 34782 ft 438 kts 129°
2026-05-06 11:24 49.97211 10.01461 34778 ft 437 kts 129°
2026-05-06 11:24 49.93850 10.09314 34778 ft 436 kts 129°
2026-05-06 11:25 49.90499 10.17165 34777 ft 435 kts 129°
2026-05-06 11:25 49.87163 10.24963 34787 ft 434 kts 129°
2026-05-06 11:26 49.83844 10.32696 34785 ft 433 kts 129°
2026-05-06 11:26 49.80506 10.40448 34794 ft 432 kts 130°
2026-05-06 11:27 49.77158 10.48201 34773 ft 432 kts 130°
2026-05-06 11:27 49.73809 10.55932 34796 ft 433 kts 130°
2026-05-06 11:28 49.70445 10.63676 34788 ft 434 kts 130°
2026-05-06 11:28 49.67083 10.71393 34796 ft 437 kts 130°
2026-05-06 11:29 49.63676 10.79191 34801 ft 439 kts 130°
2026-05-06 11:29 49.60249 10.87013 34784 ft 441 kts 130°
2026-05-06 11:30 49.56803 10.94861 34801 ft 443 kts 130°
2026-05-06 11:30 49.53334 11.02734 34808 ft 445 kts 130°
2026-05-06 11:31 49.50230 11.11089 34814 ft 452 kts 123°
2026-05-06 11:31 49.47446 11.19779 34799 ft 453 kts 122°
2026-05-06 11:32 49.44676 11.28414 34790 ft 451 kts 123°
2026-05-06 11:32 49.41859 11.37021 34797 ft 450 kts 123°
2026-05-06 11:33 49.39017 11.45597 34804 ft 449 kts 123°
2026-05-06 11:33 49.36175 11.54124 34800 ft 448 kts 124°
2026-05-06 11:34 49.33338 11.62614 34794 ft 447 kts 124°
2026-05-06 11:34 49.30504 11.71068 34791 ft 445 kts 124°
2026-05-06 11:35 49.27673 11.79484 34803 ft 444 kts 124°
2026-05-06 11:35 49.24857 11.87831 34808 ft 444 kts 124°
2026-05-06 11:36 49.22019 11.96212 34807 ft 444 kts 124°
2026-05-06 11:36 49.19169 12.04601 34784 ft 444 kts 124°
2026-05-06 11:37 49.16315 12.12979 34808 ft 444 kts 124°
2026-05-06 11:37 49.13451 12.21356 34809 ft 445 kts 124°
2026-05-06 11:38 49.10572 12.29749 34807 ft 447 kts 124°
2026-05-06 11:38 49.07680 12.38154 34791 ft 448 kts 125°
2026-05-06 11:39 49.04793 12.46517 34792 ft 448 kts 125°
2026-05-06 11:39 49.01879 12.54930 34799 ft 449 kts 125°
2026-05-06 11:40 48.98958 12.63338 34802 ft 449 kts 125°
2026-05-06 11:40 48.96026 12.71749 34804 ft 450 kts 125°
2026-05-06 11:41 48.93086 12.80156 34793 ft 450 kts 125°
2026-05-06 11:41 48.90157 12.88504 34798 ft 450 kts 125°
2026-05-06 11:42 48.87206 12.96887 34797 ft 449 kts 126°
2026-05-06 11:42 48.84250 13.05257 34790 ft 449 kts 126°
2026-05-06 11:43 48.81289 13.13619 34804 ft 448 kts 126°
2026-05-06 11:43 48.78351 13.21884 34766 ft 448 kts 126°
2026-05-06 11:44 48.73905 13.34344 34785 ft 447 kts 126°
2026-05-06 11:44 48.70940 13.42621 34802 ft 447 kts 126°
2026-05-06 11:45 48.67968 13.50895 34806 ft 448 kts 126°
2026-05-06 11:45 48.64975 13.59160 34775 ft 447 kts 127°
2026-05-06 11:46 48.61751 13.67146 34800 ft 445 kts 129°
2026-05-06 11:46 48.58416 13.75038 34799 ft 446 kts 129°
2026-05-06 11:47 48.55081 13.82959 34812 ft 447 kts 129°
2026-05-06 11:47 48.51748 13.90923 34801 ft 449 kts 129°
2026-05-06 11:48 48.48421 13.98883 34785 ft 449 kts 129°
2026-05-06 11:48 48.45112 14.06777 34804 ft 449 kts 129°
2026-05-06 11:49 48.41769 14.14730 34800 ft 449 kts 129°
2026-05-06 11:49 48.38413 14.22681 34810 ft 450 kts 129°
2026-05-06 11:50 48.35046 14.30637 34799 ft 451 kts 129°
2026-05-06 11:50 48.31698 14.38528 34794 ft 450 kts 130°
2026-05-06 11:51 48.28321 14.46463 34812 ft 450 kts 130°
2026-05-06 11:51 48.24935 14.54394 34797 ft 451 kts 130°
2026-05-06 11:52 48.21550 14.62301 34814 ft 451 kts 130°
2026-05-06 11:52 48.18157 14.70202 34767 ft 450 kts 130°
2026-05-06 11:53 48.14763 14.78086 34795 ft 450 kts 130°
2026-05-06 11:53 48.11363 14.85958 34801 ft 450 kts 130°
2026-05-06 11:54 48.07978 14.93774 34801 ft 450 kts 130°
2026-05-06 11:54 48.04565 15.01628 34796 ft 450 kts 130°
2026-05-06 11:55 48.01149 15.09473 34797 ft 450 kts 130°
2026-05-06 11:55 47.97722 15.17316 34807 ft 451 kts 130°
2026-05-06 11:56 47.94302 15.25124 34806 ft 453 kts 130°
2026-05-06 11:56 47.90843 15.32998 34809 ft 454 kts 130°
2026-05-06 11:57 47.87153 15.40590 34805 ft 450 kts 135°
2026-05-06 11:57 47.83210 15.47820 34826 ft 450 kts 136°
2026-05-06 11:58 47.79917 15.53818 34821 ft 450 kts 136°
2026-05-06 11:58 47.75337 15.62236 34834 ft 450 kts 136°
2026-05-06 11:59 47.72042 15.68311 34834 ft 451 kts 136°
2026-05-06 11:59 47.68103 15.75562 34831 ft 452 kts 135°
2026-05-06 12:00 47.64154 15.82814 34829 ft 451 kts 135°
2026-05-06 12:00 47.60231 15.89996 34840 ft 450 kts 135°
2026-05-06 12:01 47.56289 15.97194 34847 ft 449 kts 135°
2026-05-06 12:01 47.52346 16.04371 34861 ft 449 kts 136°
2026-05-06 12:02 47.48392 16.11550 34842 ft 450 kts 135°
2026-05-06 12:02 47.44424 16.18735 34850 ft 451 kts 135°
2026-05-06 12:03 47.40445 16.25922 34856 ft 453 kts 135°
2026-05-06 12:03 47.36441 16.33139 34859 ft 455 kts 135°
2026-05-06 12:04 47.32437 16.40339 34857 ft 457 kts 135°
2026-05-06 12:04 47.28396 16.47584 34860 ft 457 kts 135°
2026-05-06 12:05 47.24389 16.54863 34866 ft 457 kts 135°
2026-05-06 12:05 47.20404 16.62160 34856 ft 456 kts 134°
2026-05-06 12:06 47.16427 16.69420 34866 ft 455 kts 135°
2026-05-06 12:06 47.12473 16.76604 34869 ft 455 kts 134°
2026-05-06 12:07 47.08490 16.83816 34882 ft 454 kts 134°
2026-05-06 12:07 47.04505 16.91012 34880 ft 455 kts 134°
2026-05-06 12:08 47.00513 16.98204 34881 ft 454 kts 134°
2026-05-06 12:08 46.96514 17.05389 34878 ft 454 kts 134°
2026-05-06 12:09 46.92543 17.12507 34889 ft 454 kts 134°
2026-05-06 12:09 46.88539 17.19662 34901 ft 454 kts 134°
2026-05-06 12:10 46.84530 17.26809 34908 ft 455 kts 134°
2026-05-06 12:10 46.80517 17.33946 34912 ft 455 kts 134°
2026-05-06 12:11 46.76496 17.41079 34900 ft 455 kts 134°
2026-05-06 12:11 46.72460 17.48219 34910 ft 454 kts 134°
2026-05-06 12:12 46.68464 17.55270 34909 ft 454 kts 134°
2026-05-06 12:12 46.64439 17.62358 34906 ft 454 kts 134°
2026-05-06 12:13 46.60413 17.69439 34893 ft 454 kts 134°
2026-05-06 12:13 46.56506 17.76669 34907 ft 455 kts 132°
2026-05-06 12:14 46.52651 17.83959 34912 ft 455 kts 132°
2026-05-06 12:14 46.48775 17.91239 34914 ft 455 kts 133°
2026-05-06 12:15 46.44890 17.98479 34900 ft 455 kts 133°
2026-05-06 12:15 46.40992 18.05709 34916 ft 455 kts 133°
2026-05-06 12:16 46.37086 18.12937 34919 ft 455 kts 133°
2026-05-06 12:16 46.33201 18.20106 34909 ft 455 kts 133°
2026-05-06 12:17 46.29291 18.27305 34927 ft 455 kts 133°
2026-05-06 12:17 46.25366 18.34512 34935 ft 455 kts 133°
2026-05-06 12:18 46.21452 18.41681 34937 ft 455 kts 133°
2026-05-06 12:18 46.17533 18.48842 34937 ft 454 kts 133°
2026-05-06 12:19 46.13610 18.55990 34940 ft 454 kts 133°
2026-05-06 12:19 46.09681 18.63131 34926 ft 454 kts 133°
2026-05-06 12:20 46.05751 18.70256 34925 ft 454 kts 133°
2026-05-06 12:20 46.01838 18.77333 34923 ft 454 kts 133°
2026-05-06 12:21 45.97894 18.84451 34931 ft 455 kts 133°
2026-05-06 12:21 45.93940 18.91567 34914 ft 455 kts 133°
2026-05-06 12:22 45.89661 18.98191 34935 ft 451 kts 140°
2026-05-06 12:22 45.85125 19.04419 34936 ft 451 kts 141°
2026-05-06 12:23 45.80579 19.10642 34939 ft 452 kts 141°
2026-05-06 12:23 45.76054 19.16910 34937 ft 453 kts 140°
2026-05-06 12:24 45.71524 19.23213 34933 ft 454 kts 140°
2026-05-06 12:24 45.67031 19.29464 34941 ft 454 kts 140°
2026-05-06 12:25 45.62491 19.35763 34936 ft 455 kts 140°
2026-05-06 12:25 45.57941 19.42059 34944 ft 455 kts 140°
2026-05-06 12:26 45.53385 19.48347 34939 ft 456 kts 140°
2026-05-06 12:26 45.48828 19.54622 34946 ft 456 kts 140°
2026-05-06 12:27 45.44261 19.60896 34938 ft 455 kts 140°
2026-05-06 12:27 45.39700 19.67147 34937 ft 454 kts 140°
2026-05-06 12:28 45.35140 19.73380 34938 ft 454 kts 140°
2026-05-06 12:28 45.30618 19.79549 34942 ft 453 kts 140°
2026-05-06 12:29 45.26068 19.85740 34948 ft 452 kts 140°
2026-05-06 12:29 45.21523 19.91910 34950 ft 452 kts 140°
2026-05-06 12:30 45.16980 19.98064 34945 ft 451 kts 140°
2026-05-06 12:30 45.12470 20.04157 34948 ft 450 kts 140°
2026-05-06 12:31 45.07936 20.10271 34949 ft 450 kts 140°
2026-05-06 12:31 45.03401 20.16371 34954 ft 450 kts 140°
2026-05-06 12:32 44.98856 20.22470 34970 ft 450 kts 140°
2026-05-06 12:32 44.94311 20.28554 34953 ft 451 kts 140°
2026-05-06 12:33 44.89755 20.34640 34972 ft 451 kts 140°
2026-05-06 12:33 44.85186 20.40730 34972 ft 452 kts 140°
2026-05-06 12:34 44.80605 20.46821 34978 ft 453 kts 140°
2026-05-06 12:34 44.76042 20.52874 34955 ft 454 kts 140°
2026-05-06 12:35 44.71439 20.58968 34972 ft 455 kts 140°
2026-05-06 12:35 44.66821 20.65066 34965 ft 455 kts 140°
2026-05-06 12:36 44.62202 20.71152 34974 ft 455 kts 140°
2026-05-06 12:36 44.57580 20.77229 34971 ft 455 kts 140°
2026-05-06 12:37 44.52954 20.83296 34966 ft 455 kts 140°
2026-05-06 12:37 44.48318 20.89363 34965 ft 455 kts 140°
2026-05-06 12:38 44.43720 20.95367 34969 ft 455 kts 140°
2026-05-06 12:38 44.39087 21.01402 34959 ft 455 kts 140°
2026-05-06 12:39 44.34449 21.07430 34962 ft 454 kts 140°
2026-05-06 12:39 44.29819 21.13434 34971 ft 454 kts 140°
2026-05-06 12:40 44.25189 21.19424 34972 ft 454 kts 140°
2026-05-06 12:40 44.20581 21.25373 34970 ft 454 kts 140°
2026-05-06 12:41 44.15945 21.31344 34968 ft 454 kts 140°
2026-05-06 12:41 44.11298 21.37317 34971 ft 454 kts 140°
2026-05-06 12:42 44.06647 21.43280 34982 ft 454 kts 140°
2026-05-06 12:42 44.01996 21.49232 34980 ft 455 kts 140°
2026-05-06 12:43 43.97326 21.55192 34966 ft 456 kts 140°
2026-05-06 12:43 43.92683 21.61107 34989 ft 456 kts 140°
2026-05-06 12:44 43.87999 21.67060 34987 ft 457 kts 140°
2026-05-06 12:44 43.83306 21.73011 34979 ft 458 kts 140°
2026-05-06 12:45 43.78601 21.78964 34977 ft 458 kts 139°
2026-05-06 12:46 43.71535 21.87879 34983 ft 458 kts 139°
2026-05-06 12:46 43.66847 21.93778 34983 ft 458 kts 140°
2026-05-06 12:47 43.62124 21.99708 34981 ft 458 kts 140°
2026-05-06 12:47 43.58200 22.04624 34982 ft 458 kts 140°
2026-05-06 12:48 43.53491 22.10513 34995 ft 457 kts 140°
2026-05-06 12:48 43.48776 22.16395 34988 ft 457 kts 140°
2026-05-06 12:49 43.44049 22.22279 34977 ft 457 kts 140°
2026-05-06 12:49 43.39324 22.28149 34978 ft 457 kts 139°
2026-05-06 12:50 43.34637 22.33958 34988 ft 457 kts 140°
2026-05-06 12:50 43.29887 22.39833 34989 ft 456 kts 140°
2026-05-06 12:51 43.25193 22.45626 34993 ft 456 kts 140°
2026-05-06 12:51 43.20462 22.51451 34989 ft 457 kts 139°
2026-05-06 12:52 43.15728 22.57269 34998 ft 457 kts 139°
2026-05-06 12:52 43.10989 22.63080 35002 ft 457 kts 140°
2026-05-06 12:53 43.06264 22.68862 34996 ft 458 kts 140°
2026-05-06 12:53 43.01517 22.74658 35001 ft 458 kts 139°
2026-05-06 12:54 42.96753 22.80469 35013 ft 459 kts 139°
2026-05-06 12:54 42.92068 22.86407 35007 ft 460 kts 137°
2026-05-06 12:55 42.87404 22.92423 35013 ft 460 kts 137°
2026-05-06 12:55 42.82740 22.98408 35011 ft 461 kts 137°
2026-05-06 12:56 42.78054 23.04384 35021 ft 462 kts 137°
2026-05-06 12:56 42.73350 23.10361 35022 ft 462 kts 137°
2026-05-06 12:57 42.68671 23.16291 35021 ft 462 kts 137°
2026-05-06 12:57 42.63931 23.22287 35026 ft 463 kts 137°
2026-05-06 12:58 42.59231 23.28222 35025 ft 464 kts 137°
2026-05-06 12:58 42.54487 23.34198 35005 ft 465 kts 137°
2026-05-06 12:59 42.49751 23.40152 35031 ft 464 kts 137°
2026-05-06 12:59 42.45016 23.46092 35036 ft 465 kts 137°
2026-05-06 13:00 42.40267 23.52036 35037 ft 465 kts 137°
2026-05-06 13:00 42.35541 23.57941 35046 ft 465 kts 137°
2026-05-06 13:01 42.30781 23.63874 35048 ft 466 kts 137°
2026-05-06 13:01 42.25980 23.69777 35046 ft 466 kts 138°
2026-05-06 13:02 42.21149 23.75636 35047 ft 467 kts 138°
2026-05-06 13:02 42.16306 23.81503 35032 ft 467 kts 138°
2026-05-06 13:03 42.11473 23.87356 35034 ft 467 kts 138°
2026-05-06 13:03 42.06649 23.93190 35024 ft 466 kts 138°
2026-05-06 13:04 42.01823 23.99016 35036 ft 465 kts 138°
2026-05-06 13:04 41.97030 24.04788 35032 ft 465 kts 138°
2026-05-06 13:05 41.92212 24.10579 35036 ft 466 kts 138°
2026-05-06 13:05 41.87373 24.16382 35023 ft 466 kts 138°
2026-05-06 13:06 41.82539 24.22168 35032 ft 466 kts 138°
2026-05-06 13:06 41.77697 24.27950 35029 ft 466 kts 138°
2026-05-06 13:07 41.72851 24.33725 35034 ft 466 kts 138°
2026-05-06 13:07 41.68029 24.39461 35034 ft 467 kts 138°
2026-05-06 13:08 41.63159 24.45240 35030 ft 468 kts 138°
2026-05-06 13:08 41.58278 24.51021 35039 ft 469 kts 138°
2026-05-06 13:09 41.53387 24.56801 35033 ft 470 kts 138°
2026-05-06 13:09 41.48491 24.62576 35033 ft 470 kts 138°
2026-05-06 13:10 41.43589 24.68348 35047 ft 470 kts 138°
2026-05-06 13:10 41.38773 24.74271 35045 ft 471 kts 135°
2026-05-06 13:11 41.34146 24.80374 35045 ft 471 kts 134°
2026-05-06 13:11 41.29470 24.86558 35047 ft 471 kts 135°
2026-05-06 13:12 41.24832 24.92625 35045 ft 471 kts 135°
2026-05-06 13:12 41.20147 24.98712 35038 ft 471 kts 135°
2026-05-06 13:13 41.15450 25.04795 35050 ft 472 kts 135°
2026-05-06 13:13 41.10737 25.10887 35047 ft 472 kts 135°
2026-05-06 13:14 41.06028 25.16962 35058 ft 472 kts 135°
2026-05-06 13:14 41.01337 25.23002 35055 ft 473 kts 135°
2026-05-06 13:15 40.96611 25.29075 35066 ft 474 kts 135°
2026-05-06 13:15 40.91871 25.35152 35066 ft 474 kts 134°
2026-05-06 13:16 40.87123 25.41227 35060 ft 475 kts 134°
2026-05-06 13:16 40.82364 25.47305 35062 ft 476 kts 134°
2026-05-06 13:17 40.77599 25.53376 35061 ft 476 kts 135°
2026-05-06 13:17 40.72857 25.59405 35061 ft 477 kts 135°
2026-05-06 13:18 40.68069 25.65480 35082 ft 477 kts 135°
2026-05-06 13:18 40.63269 25.71559 35062 ft 478 kts 135°
2026-05-06 13:19 40.58465 25.77629 35063 ft 479 kts 135°
2026-05-06 13:19 40.53649 25.83705 35065 ft 479 kts 135°
2026-05-06 13:20 40.48889 25.89831 35063 ft 479 kts 130°
2026-05-06 13:20 40.44510 25.96334 35090 ft 478 kts 129°
2026-05-06 13:21 40.40165 26.02952 35066 ft 478 kts 129°
2026-05-06 13:21 40.35789 26.09532 35055 ft 478 kts 129°
2026-05-06 13:22 40.31392 26.16077 35074 ft 478 kts 129°
2026-05-06 13:22 40.26986 26.22612 35070 ft 478 kts 129°
2026-05-06 13:23 40.22582 26.29135 35086 ft 478 kts 130°
2026-05-06 13:23 40.18178 26.35648 35085 ft 478 kts 130°
2026-05-06 13:24 40.13793 26.42117 35072 ft 477 kts 130°
2026-05-06 13:24 40.09156 26.48355 35078 ft 478 kts 134°
2026-05-06 13:25 40.04357 26.54390 35064 ft 478 kts 135°
2026-05-06 13:25 39.99607 26.60390 35072 ft 478 kts 134°
2026-05-06 13:26 39.94851 26.66456 35064 ft 478 kts 134°
2026-05-06 13:26 39.90092 26.72531 35068 ft 477 kts 134°
2026-05-06 13:27 39.85343 26.78579 35070 ft 476 kts 134°
2026-05-06 13:27 39.80626 26.84573 35062 ft 476 kts 134°
2026-05-06 13:28 39.75880 26.90582 35067 ft 476 kts 135°
2026-05-06 13:28 39.71082 26.96495 35067 ft 475 kts 136°
2026-05-06 13:29 39.66280 27.02363 35068 ft 473 kts 136°
2026-05-06 13:29 39.61493 27.08224 35071 ft 473 kts 136°
2026-05-06 13:30 39.56702 27.14091 35076 ft 473 kts 136°
2026-05-06 13:30 39.51934 27.19918 35078 ft 474 kts 136°
2026-05-06 13:31 39.47371 27.26091 35069 ft 473 kts 128°
2026-05-06 13:31 39.43266 27.32758 35066 ft 473 kts 127°
2026-05-06 13:32 39.39110 27.39393 35061 ft 474 kts 128°
2026-05-06 13:32 39.34900 27.45962 35060 ft 474 kts 128°
2026-05-06 13:33 39.30703 27.52484 35063 ft 475 kts 128°
2026-05-06 13:33 39.26489 27.59030 35055 ft 474 kts 128°
2026-05-06 13:34 39.22278 27.65561 35048 ft 472 kts 128°
2026-05-06 13:34 39.18792 27.70958 35049 ft 470 kts 128°
2026-05-06 13:35 39.14609 27.77425 35052 ft 468 kts 128°
2026-05-06 13:35 39.10439 27.83857 35062 ft 468 kts 128°
2026-05-06 13:36 39.06258 27.90290 35057 ft 468 kts 128°
2026-05-06 13:36 39.02066 27.96720 35072 ft 469 kts 128°
2026-05-06 13:37 38.97882 28.03127 35059 ft 471 kts 128°
2026-05-06 13:37 38.93665 28.09574 35085 ft 471 kts 129°
2026-05-06 13:38 38.89438 28.16025 35069 ft 473 kts 129°
2026-05-06 13:38 38.85231 28.22431 35069 ft 467 kts 129°
2026-05-06 13:39 38.81030 28.28817 35079 ft 470 kts 129°
2026-05-06 13:39 38.76800 28.35233 35070 ft 472 kts 129°
2026-05-06 13:40 38.72554 28.41660 35070 ft 469 kts 129°
2026-05-06 13:40 38.68351 28.48009 35079 ft 467 kts 129°
2026-05-06 13:41 38.64149 28.54347 35071 ft 468 kts 129°
2026-05-06 13:41 38.59935 28.60690 35078 ft 468 kts 129°
2026-05-06 13:42 38.55678 28.66936 35092 ft 468 kts 132°
2026-05-06 13:42 38.51203 28.72989 35088 ft 469 kts 133°
2026-05-06 13:43 38.46706 28.79018 35067 ft 469 kts 133°
2026-05-06 13:43 38.42223 28.85084 35075 ft 470 kts 133°
2026-05-06 13:44 38.37751 28.91159 35076 ft 470 kts 133°
2026-05-06 13:44 38.33283 28.97221 35095 ft 469 kts 133°
2026-05-06 13:45 38.28809 29.03278 35085 ft 469 kts 133°
2026-05-06 13:45 38.22089 29.12351 35079 ft 469 kts 133°
2026-05-06 13:46 38.17591 29.18200 35055 ft 451 kts 136°
2026-05-06 13:46 38.13142 29.23613 34782 ft 453 kts 136°
2026-05-06 13:47 38.10819 29.26426 34472 ft 469 kts 136°
2026-05-06 13:47 38.08418 29.29347 34041 ft 487 kts 136°
2026-05-06 13:47 38.05955 29.32358 33507 ft 492 kts 136°
2026-05-06 13:47 38.03499 29.35370 32967 ft 489 kts 135°
2026-05-06 13:48 38.01062 29.38362 32438 ft 485 kts 135°
2026-05-06 13:48 37.98646 29.41329 31921 ft 482 kts 135°
2026-05-06 13:48 37.96247 29.44274 31421 ft 478 kts 135°
2026-05-06 13:48 37.93865 29.47194 30929 ft 475 kts 135°
2026-05-06 13:49 37.91497 29.50094 30445 ft 472 kts 135°
2026-05-06 13:49 37.89141 29.52976 29931 ft 470 kts 135°
2026-05-06 13:49 37.86796 29.55842 29380 ft 467 kts 135°
2026-05-06 13:49 37.84465 29.58686 28844 ft 464 kts 135°
2026-05-06 13:50 37.82148 29.61512 28280 ft 461 kts 135°
2026-05-06 13:50 37.79869 29.64289 27768 ft 459 kts 135°
2026-05-06 13:50 37.77576 29.67080 27252 ft 456 kts 135°
2026-05-06 13:50 37.75296 29.69853 26742 ft 454 kts 135°
2026-05-06 13:51 37.73026 29.72612 26251 ft 452 kts 135°
2026-05-06 13:51 37.70761 29.75361 25750 ft 449 kts 135°
2026-05-06 13:51 37.68512 29.78090 25262 ft 447 kts 135°
2026-05-06 13:51 37.66276 29.80800 24789 ft 444 kts 135°
2026-05-06 13:52 37.64052 29.83492 24338 ft 442 kts 135°
2026-05-06 13:52 37.61841 29.86166 23879 ft 439 kts 135°
2026-05-06 13:52 37.59640 29.88827 23357 ft 436 kts 135°
2026-05-06 13:52 37.57455 29.91466 22821 ft 434 kts 135°
2026-05-06 13:53 37.55283 29.94087 22291 ft 431 kts 135°
2026-05-06 13:53 37.53148 29.96661 21763 ft 428 kts 135°
2026-05-06 13:53 37.51000 29.99250 21245 ft 426 kts 136°
2026-05-06 13:53 37.48856 30.01831 20734 ft 424 kts 136°
2026-05-06 13:54 37.46729 30.04389 20240 ft 422 kts 136°
2026-05-06 13:54 37.44613 30.06932 19753 ft 419 kts 136°
2026-05-06 13:54 37.42511 30.09456 19276 ft 417 kts 136°
2026-05-06 13:54 37.40411 30.11974 18811 ft 415 kts 136°
2026-05-06 13:55 37.38327 30.14473 18351 ft 413 kts 136°
2026-05-06 13:55 37.36249 30.16961 17817 ft 411 kts 136°
2026-05-06 13:55 37.34190 30.19429 17277 ft 407 kts 136°
2026-05-06 13:55 37.32146 30.21874 16765 ft 404 kts 136°
2026-05-06 13:56 37.30109 30.24306 16261 ft 402 kts 136°
2026-05-06 13:56 37.28095 30.26711 15757 ft 399 kts 136°
2026-05-06 13:56 37.26113 30.29075 15271 ft 396 kts 136°
2026-05-06 13:56 37.24118 30.31452 14793 ft 393 kts 136°
2026-05-06 13:57 37.22140 30.33809 14315 ft 391 kts 136°
2026-05-06 13:57 37.20173 30.36151 13824 ft 389 kts 135°
2026-05-06 13:57 37.18216 30.38479 13301 ft 386 kts 136°
2026-05-06 13:57 37.16285 30.40776 13045 ft 376 kts 136°
2026-05-06 13:58 37.14416 30.42997 12916 ft 364 kts 136°
2026-05-06 13:58 37.12616 30.45133 12896 ft 349 kts 136°
2026-05-06 13:58 37.10863 30.47212 12892 ft 347 kts 136°
2026-05-06 13:58 37.09323 30.49519 12892 ft 345 kts 116°
2026-05-06 13:59 37.08548 30.52324 12892 ft 340 kts 96°
2026-05-06 13:59 37.08256 30.55258 12896 ft 339 kts 94°
2026-05-06 13:59 37.08116 30.58190 12878 ft 336 kts 81°
2026-05-06 13:59 37.08781 30.60892 12903 ft 327 kts 57°
2026-05-06 14:00 37.10197 30.63072 12898 ft 320 kts 36°
2026-05-06 14:00 37.12072 30.64519 12903 ft 315 kts 19°
2026-05-06 14:00 37.14177 30.65147 12915 ft 311 kts
2026-05-06 14:00 37.16337 30.65430 12904 ft 312 kts
2026-05-06 14:01 37.18499 30.65699 12895 ft 313 kts
2026-05-06 14:01 37.20595 30.66434 12800 ft 318 kts 25°
2026-05-06 14:01 37.22441 30.67978 12500 ft 315 kts 33°
2026-05-06 14:01 37.24159 30.69617 12088 ft 307 kts 40°
2026-05-06 14:02 37.25408 30.71757 11698 ft 304 kts 61°
2026-05-06 14:02 37.26264 30.74158 11326 ft 298 kts 63°
2026-05-06 14:02 37.27089 30.76528 10863 ft 295 kts 63°
2026-05-06 14:02 37.27800 30.78930 10355 ft 296 kts 77°
2026-05-06 14:03 37.27719 30.81496 9882 ft 297 kts 105°
2026-05-06 14:03 37.26644 30.83674 9355 ft 297 kts 140°
2026-05-06 14:03 37.24808 30.84768 8829 ft 293 kts 174°
2026-05-06 14:03 37.22830 30.84469 8252 ft 286 kts 201°
2026-05-06 14:04 37.20944 30.83646 7650 ft 289 kts 197°
2026-05-06 14:04 37.18951 30.83195 7048 ft 293 kts 187°
2026-05-06 14:04 37.16914 30.83013 6430 ft 295 kts 184°
2026-05-06 14:04 37.14865 30.82775 5816 ft 296 kts 187°
2026-05-06 14:05 37.12817 30.82447 5186 ft 297 kts 187°
2026-05-06 14:05 37.10768 30.82135 4553 ft 296 kts 186°
2026-05-06 14:05 37.08731 30.81842 3925 ft 291 kts 185°
2026-05-06 14:05 37.06799 30.81569 3542 ft 266 kts 184°
2026-05-06 14:06 37.05065 30.81327 3285 ft 243 kts 184°
2026-05-06 14:06 37.03429 30.81107 2997 ft 225 kts 183°
2026-05-06 14:06 37.01926 30.80909 2670 ft 216 kts 185°
2026-05-06 14:06 37.00444 30.80705 2312 ft 211 kts 183°
2026-05-06 14:07 36.98992 30.80506 1916 ft 208 kts 185°
2026-05-06 14:07 36.97575 30.80310 1561 ft 209 kts 185°
2026-05-06 14:07 36.95988 30.80065 1720 ft 247 kts 185°
2026-05-06 14:07 36.94151 30.79811 2257 ft 285 kts 185°
2026-05-06 14:08 36.92078 30.79502 3109 ft 312 kts 186°
2026-05-06 14:08 36.89805 30.79131 3107 ft 333 kts 186°
2026-05-06 14:08 36.87575 30.78867 3677 ft 293 kts 184°
2026-05-06 14:08 36.85628 30.78427 3654 ft 289 kts 206°
2026-05-06 14:09 36.84161 30.76861 3571 ft 278 kts 232°
2026-05-06 14:09 36.82833 30.75203 3472 ft 266 kts 207°
2026-05-06 14:09 36.81109 30.74766 3547 ft 245 kts 169°
2026-05-06 14:09 36.79667 30.75658 3736 ft 229 kts 132°
2026-05-06 14:10 36.78659 30.77283 3990 ft 251 kts 125°
2026-05-06 14:10 36.77597 30.79109 3984 ft 263 kts 121°
2026-05-06 14:10 36.77088 30.81250 3994 ft 260 kts 87°
2026-05-06 14:10 36.77576 30.83422 4019 ft 264 kts 65°
2026-05-06 14:11 36.78327 30.85495 4002 ft 265 kts 65°
2026-05-06 14:11 36.79086 30.87591 3987 ft 265 kts 65°
2026-05-06 14:11 36.79847 30.89683 3982 ft 263 kts 65°
2026-05-06 14:11 36.80898 30.91505 3979 ft 261 kts 36°
2026-05-06 14:12 36.82549 30.92395 4007 ft 259 kts 15°
2026-05-06 14:12 36.84298 30.92982 4007 ft 263 kts 16°
2026-05-06 14:12 36.86087 30.93576 3987 ft 266 kts 16°
2026-05-06 14:12 36.87878 30.94156 3993 ft 265 kts 15°
2026-05-06 14:13 36.89665 30.94714 3991 ft 264 kts 11°
2026-05-06 14:13 36.91494 30.94783 3879 ft 270 kts 357°
2026-05-06 14:13 36.93385 30.94600 3646 ft 275 kts 356°
2026-05-06 14:13 36.95288 30.94374 3420 ft 272 kts 355°
2026-05-06 14:14 36.97135 30.94140 3167 ft 261 kts 355°
2026-05-06 14:14 36.98903 30.93910 3028 ft 248 kts 355°
2026-05-06 14:14 37.00581 30.93689 2993 ft 237 kts 355°
2026-05-06 14:14 37.02209 30.93445 2988 ft 235 kts 349°
2026-05-06 14:15 37.03790 30.92926 2996 ft 235 kts 345°
2026-05-06 14:15 37.05362 30.92390 3002 ft 233 kts 345°
2026-05-06 14:15 37.06911 30.91831 2985 ft 229 kts 339°
2026-05-06 14:15 37.08340 30.91006 2991 ft 223 kts 335°
2026-05-06 14:16 37.09725 30.90189 2998 ft 217 kts 335°
2026-05-06 14:16 37.10958 30.89139 3002 ft 214 kts 314°
2026-05-06 14:16 37.12038 30.87813 3009 ft 220 kts 315°
2026-05-06 14:16 37.13056 30.86381 2992 ft 221 kts 294°
2026-05-06 14:17 37.13236 30.84631 2964 ft 199 kts 249°
2026-05-06 14:17 37.12454 30.83346 3018 ft 187 kts 204°
2026-05-06 14:17 37.11242 30.82819 3000 ft 181 kts 194°
2026-05-06 14:17 37.10091 30.82408 2997 ft 166 kts 192°
2026-05-06 14:18 37.08996 30.82022 3015 ft 163 kts 193°
2026-05-06 14:18 37.07889 30.81696 2998 ft 161 kts 186°
2026-05-06 14:18 37.06774 30.81553 2987 ft 159 kts 183°
2026-05-06 14:18 37.05694 30.81420 2924 ft 154 kts 184°
2026-05-06 14:19 37.04623 30.81267 2764 ft 152 kts 185°
2026-05-06 14:19 37.03586 30.81129 2542 ft 147 kts 182°
2026-05-06 14:19 37.02570 30.80996 2358 ft 149 kts 184°
2026-05-06 14:19 37.01534 30.80856 2160 ft 150 kts 184°
2026-05-06 14:20 37.00489 30.80712 1965 ft 151 kts 184°
2026-05-06 14:20 36.99799 30.80617 1828 ft 150 kts 184°
2026-05-06 14:20 36.98768 30.80475 1634 ft 149 kts 184°
2026-05-06 14:20 36.97409 30.80288 1363 ft 147 kts 185°
2026-05-06 14:21 36.96716 30.80192 1216 ft 149 kts 185°
2026-05-06 14:21 36.95708 30.80049 1034 ft 146 kts 185°
2026-05-06 14:21 36.94695 30.79907 846 ft 147 kts 185°
2026-05-06 14:21 36.93659 30.79766 626 ft 152 kts 185°
2026-05-06 14:22 36.92610 30.79623 418 ft 151 kts 181°
2026-05-06 14:22 36.91572 30.79489 258 ft 148 kts 185°
2026-05-06 14:22 36.90587 30.79348 194 ft 131 kts 186°
2026-05-06 14:22 36.89819 30.79241 193 ft 66 kts 187°
2026-05-06 14:23 36.89601 30.79229 191 ft 18 kts 167°
2026-05-06 14:23 36.89510 30.79277 189 ft 10 kts 156°
2026-05-06 14:23 36.89482 30.79293 196 ft 0 kts 156°
2026-05-06 14:24 36.89474 30.79297 196 ft 5 kts 156°
2026-05-06 14:24 36.89430 30.79326 191 ft 8 kts 144°
2026-05-06 14:24 36.89420 30.79384 202 ft 7 kts 59°
2026-05-06 14:25 36.89464 30.79410 209 ft 7 kts